C/2004 L2 (LINEAR)

Epoch 2005 Nov. 6.0 TT = JDT 2453680.5  

T 2005 Nov. 15.10297 TT                                 Nakano

q   3.7786209            (2000.0)            P               Q

z  +0.0012677      Peri.  257.31159     +0.47946771     -0.05557939

 +/-0.0000010      Node    99.18000     +0.21122683     +0.97596065

e   0.9952098      Incl.   62.51857     -0.85175932     +0.21074093

From 262 observations 2004 June 11-2006 Nov. 25, mean residual 0".55.

   (1/a)org.= +0.001313, (1/a)fut.= +0.001043 (+/-0.000001), Q= 8.

Residuals in seconds of arc 

2004/                     050731 415  0.0   0.3-    051225 I77 (0.2+  2.7-) 

040611 704  0.3+  0.0     050801 415  0.1-  0.4-    051225 I77  0.6+  1.0+  

040611 704  0.1-  0.1-    050801 415  0.2+  0.2-    051225 423  0.1-  0.2+  

040611 704  0.7+  0.3+    050801 415  0.2-  0.3-    051225 423  0.0   0.3+  

040614 704  0.4-  0.5+    050805 415  0.3-  0.2-    051229 415  0.2+  0.1-  

040614 704  0.4-  0.7+    050805 415  0.1-  0.2+    051229 415  0.1+  0.8-  

040614 704  0.3-  0.0     050806 423  0.2+  1.2+    051231 I05  0.3-  0.3-  

040614 704  0.4-  0.4+    050806 423  0.4+  0.3+    2006/                   

040614 704  1.1-  0.1+    050806 423  1.0+  0.1+    060102 415  0.1+  0.4-  

040615 704  0.9+  1.3-    050808 808  0.1+  0.5+    060102 415  0.0   0.0   

040615 704  0.2-  0.3+    050808 808  0.7-  0.0     060102 415  0.1-  0.5+  

040615 704  0.6+  0.6-    050808 808  0.0   1.0-    060107 415  0.0   0.1+  

040617 118 (0.2-  2.9+)   050808 808  1.0-  0.9-    060107 415  0.6+  0.4-  

040617 118  0.2-  0.1+    050813 844  1.0-  0.2+    060108 415  0.1+  0.2+  

040617 I05  0.1-  0.3-    050813 844  0.9-  0.6+    060109 415  0.5+  0.0   

040617 I05  0.7-  0.2+    050813 844  0.8-  0.4+    060109 415  0.0   0.5-  

040617 651  0.5-  0.5+    050817 E12  0.6+  0.8-    060112 415  0.2-  0.1+  

040617 448  0.1-  0.0     050817 E12  0.5+  0.2-    060112 415  0.3+  0.9+  

040617 G90  0.3-  1.3+    050817 E12  0.5+  1.2-    060120 415  0.2+  0.1-  

040617 651  0.2-  1.0+    050817 E12  1.1+  0.9-    060120 415  0.2+  0.1-  

040617 448  0.6-  0.9+    050823 I77  1.2+  0.0     060121 423  0.2+  0.3+  

040617 G90  0.8+  0.0     050823 I77  0.0   1.0+    060121 423  0.3-  0.1-  

040617 651  0.1-  0.1-    050824 415  0.1-  0.1-    060125 I77  0.4-  0.8-  

040617 704  0.9-  0.1+    050824 415  0.3+  0.0     060125 I77  0.0   0.4-  

040617 448  0.0   0.0     050824 415  0.3-  0.5-    060125 I77  0.2-  0.0   

040617 G90  0.9-  0.4-    050907 415  0.0   0.0     060126 415  0.3+  0.4-  

040617 704  0.2+  0.2-    050907 415  0.4+  0.0     060126 415  0.4+  0.1-  

040617 704  0.6-  0.8-    050929 415  0.2+  0.0     060126 322  0.2-  0.2-  

040617 704  0.0   0.6+    050929 415  0.5+  0.3-    060126 322  0.1-  0.1+  

040617 704  0.2-  1.0-    050929 415  0.3+  0.2-    060126 322  0.7+  0.5+  

040617 704  0.4+  0.3+    051001 415  0.2+  0.0     060128 467  0.2+  0.0   

040617 704  0.4-  0.2+    051001 415  0.2+  0.4-    060128 467  0.4+  0.3-  

040617 704  0.3-  0.2+    051002 844  0.3-  0.9+    060128 467  0.2+  0.2-  

040617 704  0.2-  0.0     051002 844  0.3-  0.9+    060129 844  1.3-  0.3+  

040617 673  0.1+  0.2-    051002 844  0.5-  0.6+    060129 844  0.3-  0.4-  

040617 673  1.2-  0.5-    051002 844  0.8-  0.6+    060129 844  0.3-  0.2-  

040617 673  0.4-  0.7-    051002 844  0.7-  0.9+    060129 844  0.4-  0.4-  

040623 I05  1.6+  0.8-    051002 415  0.6+  0.3+    060129 415  0.1-  0.4-  

040623 I05  0.5+  0.7-    051002 415  0.6+  0.5-    060129 415  0.2+  0.1-  

040626 213 (1.0+  2.6-)   051003 415  0.5+  0.2-    060131 415  0.0   0.3-  

040629 673  0.2-  0.9-    051003 415  0.1-  0.2-    060131 415  0.3+  0.1-  

040629 673  0.1-  0.9-    051005 E12  0.1-  0.3-    060203 415  0.5+  0.8+  

040629 673  0.1-  0.8-    051005 E12  0.3+  0.9-    060203 415  0.1+  0.2-  

040713 360  0.3+  0.4+    051005 E12  0.1+  0.6-    060208 E12  0.7+  0.0   

040713 360  0.2+  0.3+    051005 E12  0.6+  0.9-    060208 E12  0.0   0.0   

040713 360  0.4+  0.4+    051017 415  0.2+  0.1-    060208 E12  0.6+  0.3-  

040716 D74 (0.8-  2.0-)   051017 415  0.2+  0.7-    060208 E12  0.3+  0.4-  

040716 D74  0.0   1.0-    051017 415  0.2-  0.5-    060209 I05  0.4-  0.3-  

2005/                     051025 415  0.0   0.0     060209 I05  0.5-  0.2-  

050512 I77 (0.5-  3.5-)   051025 415  0.7-  0.1-    060211 844  1.2-  0.2-  

050512 I77  0.3-  1.0+    051027 415  0.4+  0.2-    060211 844  1.1-  0.9+  

050512 I77  0.8+  0.0     051027 415  0.1+  0.4-    060211 844  0.3-  0.5+  

050515 I77  0.3-  0.3+    051027 415  0.1-  0.1+    060211 844  1.2-  0.3-  

050515 I77  0.3-  0.4+    051105 I05 (1.1-  5.4+)   060211 844  0.8-  1.4+  

050515 I77  0.4+  0.4-    051112 844  0.2+  0.8+    060218 I05  0.1-  0.7-  

050517 I77  0.4-  0.1-    051112 844  0.3-  1.1+    060218 I05  0.3+  0.8-  

050517 I77  1.2-  1.5-    051112 844  0.2-  1.1+    060218 415  0.3-  0.4+  

050517 I77  0.0   0.4-    051112 844  0.1+  0.0     060218 415  0.1-  0.1+  

050528 844  0.8-  1.3+    051112 415  0.2-  0.4-    060218 415  0.5+  0.3+  

050528 844  0.7-  0.6+    051112 415  0.4+  0.0     060225 I05  0.5-  0.1-  

050528 844  0.2-  0.4+    051112 415  0.3-  0.0     060225 I05  0.2-  0.8-  

050528 844  1.0-  0.3+    051113 808  0.0   0.4+    060227 415  0.4+  0.3-  

050626 I77  1.8+  0.1+    051113 808  0.5+  0.4-    060227 415  0.4+  0.5+  

050626 I77  1.0+  0.5+    051113 808  0.2-  0.3+    060304 I05  0.3-  0.1-  

050626 I77  1.3-  0.9+    051113 808  0.6-  0.2-    060304 I05  0.1+  0.1+  

050702 415  0.2+  0.1-    051114 I77  0.9+  0.8-    060304 I05  0.4-  0.0   

050702 415  0.2+  0.4-    051114 I77  1.6-  1.1+    060304 415  0.5+  0.3+  

050710 844  1.1-  0.2+    051114 I77  0.7+  0.8+    060304 415  0.1+  0.4-  

050710 844  1.2-  0.4+    051119 844  0.2-  0.4+    060311 I05 (4.3-  4.6-) 

050710 844  0.9-  0.4-    051119 844  0.2+  0.2+    060311 I05  0.4-  0.0   

050713 423  0.1-  0.1+    051119 844  0.7-  1.0+    060311 I05  0.8+  0.2-  

050713 423  0.3+  0.5+    051130 415  0.5+  0.1-    060319 415  0.1+  0.4-  

050713 423  0.1+  0.4+    051130 415  0.0   0.2-    060319 415  0.2-  0.7-  

050713 423  0.3+  0.2+    051207 415  0.6+  0.2-    060321 I05  0.3+  0.1-  

050717 I77  0.4-  0.6+    051207 415  0.3+  0.7-    060321 I05  0.3-  0.4+  

050717 I77  0.2-  0.3+    051207 415  0.5+  0.1+    060321 I05  0.3-  0.4+  

050717 I77  1.7+  0.7+    051210 I05  0.1+  0.3-    060325 415  0.7+  0.3+  

050717 I77  0.2+  0.2+    051217 I05  0.4-  0.0     060325 415  0.8+  0.2-  

050718 E12  0.5+  0.3-    051217 I05  0.4-  0.4-    060820 E12  0.6+  0.2-  

050718 E12  0.2-  0.3+    051217 415  0.4+  0.4-    060820 E12  1.1-  0.8-  

050718 E12  0.1+  0.3+    051217 415  0.2+  0.7-    060820 E12  0.5-  0.5-  

050718 E12  0.5+  0.1-    051217 415  0.4+  0.7-    060820 E12  0.9-  1.1-  

050723 I77  0.9+  1.6+    051219 423  0.3-  0.1-    061021 415  0.1+  0.1+  

050723 I77  0.1-  0.2+    051219 423  0.4+  0.2-    061021 415  0.3+  0.2-  

050723 I77  1.0-  0.6+    051220 423  0.0   0.1-    061022 415  0.1+  0.2+  

050725 I77  0.7+  0.1-    051220 423  0.2-  0.1-    061022 415  0.0   0.5-  

050725 I77  0.6+  1.4+    051220 423  0.2-  0.0     061031 215  0.9-  1.2-  

050725 I77  0.1-  0.8-    051222 415  0.3+  0.1+    061125 703  1.8+  0.2+  

050727 415  0.7+  0.7-    051222 415  0.1+  0.4-    061125 703  1.5+  0.6+  

050727 415  0.1+  0.4+    051224 I05  0.5-  0.7+    061125 703  0.4+  1.9+  

050731 415  0.1+  0.1-    051224 I05  0.8-  0.4+                            



NAKANO

         **** Don't distribute anyone except personal use only ****

                (C) Copyright 2006 OAA/ComputingSection

write mail from CFAD0::NAKANO on 2006-12-06 04:13:52(JST).

 



    C/2004 L2 (LINEAR)

Epoch 2005 Nov. 6.0 TT = JDT 2453680.5  

T 2005 Nov. 15.10496 TT                                 Nakano

q   3.7786033            (2000.0)            P               Q

z  +0.0012676      Peri.  257.31207     +0.47946833     -0.05558240

 +/-0.0000031      Node    99.17996     +0.21123470     +0.97595888

e   0.9952102      Incl.   62.51849     -0.85175702     +0.21074834

From 127 observations 2004 June 11-2005 Oct. 3, mean residual 0".60.

   (1/a)org.= +0.001313, (1/a)fut.= +0.001042 (+/-0.000003), Q= 7.



NAKANO

         **** Don't distribute anyone except personal use only ****

                (C) Copyright 2005 OAA/ComputingSection

write mail from CFAD0::NAKANO on 2005-11-03 23:34:28(JST).

 



    C/2004 L2 (LINEAR)                                                    

Epoch 2005 Nov. 6.0 TT = JDT 2453680.5  

T 2005 Nov. 15.07353 TT                                 Nakano

q   3.7789965            (2000.0)            P               Q

z  +0.0012757      Peri.  257.30289     +0.47948998     -0.05550021

 +/-0.0000130      Node    99.17982     +0.21107634     +0.97599268

e   0.9951792      Incl.   62.51761     -0.85178409     +0.21061343

From 50 observations 2004 June 11-2005 May 15, mean residual 0".56.

   (1/a)org.= +0.001321, (1/a)fut.= +0.001050 (+/-0.000013), Q= 6.



NAKANO

         **** Don't distribute anyone except personal use only ****

                (C) Copyright 2005 OAA/ComputingSection

write mail from CFAD0::NAKANO on 2005-06-05 05:59:11(JST).

 







    C/2004 L2 (LINEAR)                                                    

T 2005 Nov. 14.98263 TT                                 Nakano

q   3.7812420            (2000.0)            P               Q

                   Peri.  257.25897     +0.47673562     -0.05632154

                   Node    99.21132     +0.21074259     +0.97616526

e   1.0            Incl.   62.71043     -0.85341122     +0.20959311

From 45 observations 2004 June 11-July 16.



NAKANO

         **** Don't distribute anyone except personal use only ****

                (C) Copyright 2004 OAA/ComputingSection

